Content
SEND FEEDBACK

Daily
Averages
Monthly
Summary
Canada

MONTREAL, QUEBEC


Home > North America > Canada > Quebec
Elevation: 118 feet     Latitude: 45 28N     Longitude: 073 45W

WEATHER
 
SELECT A DAY
Number of Records: 203,331;   Date Range: 1/1/95 - 12/17/14
 
SHARE

PRINT THIS DATA

[ ← Previous Day ]
WEATHER ALMANAC - NOVEMBER 22, 2013
[ Next Day → ]
[ °C ]   °F
Weather ElementAverageHighLow
Temperature37.8 °F41 °F (9:00 pm)33.8 °F (6:00 am)
Dewpoint34.3 °F39.2 °F (7:31 pm)26.6 °F (1:00 am)
Humidity87.3 %100 % (7:31 pm)64 % (1:00 am)
Barometer30.02 in30.31 in (1:00 am)29.80 in (8:29 pm)
Wind Speed6.5 mph21.9 mph (11:00 pm)
Wind Gust34.5 mph (10:00 pm)
Weather ElementAverage
Visibility10.5 mi
Wind DirectionSSE (153.1 °)

Weather ElementTotal
Precipitation---
Heating Degree Days27.6 (Base 65)
Averaged from 45 records on November 22, 2013
WEATHER CONDITIONS BREAKOUT
WIND DIRECTION BREAKOUT
WEATHER BY HOUR - NOVEMBER 22, 2013
[ °C ]   °F
Local TimeTemperatureDewpointHumidityBarometerVisibilityWind DirectionWind SpeedGust SpeedPrecipitationEventsConditions
1:00 AM35.0 °F27.0 °F64 %30.31 in15.0 miEast (90°)2.3 mphOvercast
1:00 AM35.6 °F26.6 °F70 %30.31 in15.0 miESE (110°)2.3 mphOvercast
2:00 AM35.6 °F28.4 °F75 %30.29 in15.0 miENE (60°)2.3 mphOvercast
3:00 AM35.6 °F26.6 °F70 %30.26 in15.0 miEast (90°)3.5 mphOvercast
4:00 AM35.6 °F26.6 °F70 %30.25 in15.0 miENE (70°)3.5 mphOvercast
5:00 AM35.6 °F28.4 °F75 %30.23 in15.0 miNNW (340°)2.3 mphOvercast
5:21 AM35.6 °F28.4 °F75 %30.22 in15.0 miNorth (360°)4.6 mphRainLight Rain
6:00 AM33.8 °F30.2 °F87 %30.21 in15.0 miNorth (350°)2.3 mphRainLight Rain
7:00 AM34.0 °F31.0 °F85 %30.19 in10.0 miNNE (20°)5.8 mphRainLight Rain
7:00 AM33.8 °F30.2 °F87 %30.19 in10.0 miNNE (20°)6.9 mphRainLight Rain
8:00 AM33.8 °F32.0 °F93 %30.18 in10.0 miNNE (30°)2.3 mphRainLight Rain
9:00 AM35.6 °F33.8 °F93 %30.16 in10.0 miENE (60°)3.5 mphRainLight Rain
9:56 AM37.4 °F33.8 °F87 %30.14 in12.0 miSE (130°)3.5 mphOvercast
10:00 AM37.4 °F33.8 °F87 %30.14 in12.0 miSSE (150°)2.3 mphOvercast
10:33 AM37.4 °F33.8 °F87 %30.12 in12.0 miESE (110°)3.5 mphRainLight Rain
11:00 AM39.2 °F35.6 °F87 %30.10 in12.0 miEast (90°)4.6 mphLight Drizzle
11:08 AM39.2 °F35.6 °F87 %30.09 in12.0 miEast (80°)2.3 mphLight Drizzle
11:32 AM39.2 °F35.6 °F87 %30.08 in12.0 miSE (140°)4.6 mphRainLight Rain
12:00 PM39.2 °F35.6 °F87 %30.07 in12.0 miSSE (160°)4.6 mphRainLight Rain
12:28 PM39.2 °F35.6 °F87 %30.05 in12.0 miEast (100°)5.8 mphOvercast
1:00 PM39.0 °F36.0 °F84 %30.03 in15.0 miSE (140°)3.5 mphRainLight Rain
1:00 PM39.2 °F35.6 °F87 %30.03 in15.0 miESE (110°)2.3 mphOvercast
1:52 PM39.2 °F35.6 °F87 %30.00 in12.0 miSE (140°)3.5 mphOvercast
2:00 PM39.2 °F35.6 °F87 %30.00 in12.0 miSE (140°)4.6 mphOvercast
2:34 PM39.2 °F35.6 °F87 %30.01 in10.0 miSSE (160°)5.8 mphRainLight Rain
3:00 PM39.2 °F35.6 °F87 %29.98 in12.0 miSE (140°)4.6 mphOvercast
3:33 PM39.2 °F35.6 °F87 %29.96 in10.0 miESE (120°)5.8 mphRainLight Rain
4:00 PM39.2 °F37.4 °F93 %29.96 in8.0 miSE (140°)5.8 mphRainLight Rain
4:38 PM39.2 °F37.4 °F93 %29.94 in8.0 miSE (130°)4.6 mphRainLight Rain
5:00 PM39.2 °F37.4 °F93 %29.93 in6.0 miSSE (150°)5.8 mphRainLight Rain
5:37 PM39.2 °F37.4 °F93 %29.89 in6.0 miSE (130°)6.9 mphRainLight Rain
6:00 PM39.2 °F37.4 °F93 %29.88 in6.0 miSE (140°)9.2 mphLight Drizzle
6:12 PM39.2 °F37.4 °F93 %29.87 in4.0 miSE (140°)8.1 mphLight Drizzle
6:46 PM39.2 °F37.4 °F93 %29.85 in4.0 miSSE (160°)6.9 mphRainLight Rain
7:00 PM39.2 °F37.4 °F93 %29.84 in2.5 miSE (140°)6.9 mphRainLight Rain
7:00 PM38.0 °F38.0 °F99 %29.84 in2.0 miSE (140°)8.1 mphRainLight Rain
7:31 PM39.2 °F39.2 °F100 %29.82 in3.0 miSSE (160°)6.9 mphRainLight Rain
8:00 PM39.2 °F39.2 °F100 %29.81 in4.0 miSouth (170°)8.1 mphRainLight Rain
8:29 PM39.2 °F39.2 °F100 %29.80 in4.0 miSSW (210°)8.1 mphRainLight Rain
9:00 PM41.0 °F39.2 °F93 %29.80 in10.0 miWSW (250°)12.7 mph20.7 mphRainLight Rain
9:27 PM39.2 °F37.4 °F93 %29.80 in10.0 miWest (260°)13.8 mph24.2 mphRainLight Rain
10:00 PM37.4 °F35.6 °F93 %29.81 in8.0 miWest (260°)19.6 mph34.5 mphRainLight Rain
10:51 PM37.4 °F33.8 °F87 %29.81 in15.0 miWest (260°)17.3 mph31.1 mphOvercast
11:00 PM37.4 °F33.8 °F87 %29.81 in15.0 miWest (260°)21.9 mph28.8 mphOvercast
11:37 PM35.6 °F32.0 °F87 %29.83 in15.0 miWest (280°)18.4 mph32.2 mphScattered Clouds
Hourly data recorded from CYUL, located miles away from Montreal, Quebec







STORIES FROM OUR PARTNERS